Flag for Laos Weather past 2 weeks in Vientiane, Laos

Now
81 °F

Fog.


Feels Like: 87 °F
Forecast: 73 / 88 °F
Wind: 2 mph from West

Location: Vientiane Airport

Current Time: Aug 27, 2014 at 8:02:52 PM

Latest Report: Aug 27, 2014 at 7:30 PM


Visibility: 2 mi

Pressure: 29.65 "Hg

Humidity: 89%

Dew point: 77 °F

Location of VientianeLocation

Historic Weather in Vientiane — Graph

°F

Vientiane temperature yesterday

Maximum temperature yesterday: 91 °F (at 5:00 PM)
Minimum temperature yesterday: 73 °F (at 6:00 AM)
Average temperature yesterday: 83 °F

Past Weeks' High & Low Weather Summary

 TemperatureHumidityPressure
High93 °F (Aug 17, 3:30 PM)100% (Aug 15, 11:00 AM)29.92 "Hg (Aug 15, 11:00 AM)
Low73 °F (Aug 26, 6:00 AM)59% (Aug 17, 3:30 PM)29.56 "Hg (Aug 12, 6:00 PM)
Average83 °F81%29.75 "Hg
* Reported Aug 12 6:00 PM — Aug 27 6:30 PM, Vientiane, Weather by CustomWeather, © 2014

Note: Actual official high and low records may vary slightly from our data, if they occured in-between our weather recording intervals... More about our weather records

Advertising

Vientiane weather history for previous 24 hours

 ConditionsComfort  
Time TempWeatherWind HumidityBarometerVisibility
6:30 PM
Aug 27
82 °FThunderstorms. Passing clouds.2 mph84%29.65 "Hg3 mi
6:00 PM84 °FThunderstorms. Broken clouds.2 mph79%29.65 "Hg3 mi
5:30 PM86 °FThunderstorms. Partly sunny.5 mph75%29.65 "Hg4 mi
5:00 PM86 °FRain. Partly sunny.2 mph75%29.65 "Hg5 mi
4:30 PM88 °FPartly sunny.2 mph66%29.65 "HgN/A
4:00 PM91 °FPartly sunny.2 mph59%29.65 "HgN/A
3:30 PM90 °FScattered clouds.5 mph63%29.65 "HgN/A
3:00 PM90 °FScattered clouds.5 mph63%29.68 "HgN/A
2:00 PM88 °FScattered clouds.2 mph66%29.71 "HgN/A
1:30 PM88 °FScattered clouds.2 mph70%29.68 "HgN/A
1:00 PM88 °FScattered clouds.2 mph70%29.71 "HgN/A
12:00 PM86 °FScattered clouds.2 mph70%29.74 "HgN/A
11:30 AM86 °FScattered clouds.2 mph70%29.77 "HgN/A
11:00 AM84 °FScattered clouds.2 mph74%29.77 "HgN/A
10:30 AM84 °FScattered clouds.2 mph74%29.77 "HgN/A
10:00 AM82 °FScattered clouds.2 mph79%29.77 "HgN/A
9:30 AM82 °FPartly sunny.2 mph79%29.77 "HgN/A
9:00 AM81 °FPartly sunny.2 mph84%29.77 "HgN/A
8:30 AM79 °FPartly sunny.2 mph89%29.77 "Hg5 mi
8:00 AM77 °FRain. Partly sunny.2 mph94%29.77 "Hg4 mi
7:30 AM75 °FDrizzle. Partly sunny.2 mph100%29.77 "Hg2 mi
7:00 AM75 °FRain. Partly sunny.2 mph100%29.77 "Hg4 mi
6:30 AM75 °FPartly sunny.2 mph94%29.74 "HgN/A
6:00 AM75 °FPartly sunny.2 mph94%29.74 "HgN/A
10:00 PM
Aug 26
79 °FFog.2 mph89%29.74 "Hg2 mi
9:30 PM81 °FFog.2 mph84%29.74 "Hg2 mi
9:00 PM81 °FFog.2 mph84%29.74 "Hg2 mi
Weather by CustomWeather, © 2014

See weather overviewHow to use our weather pages